Location: Hurecourt
(47.9030°N, 6.0653°E)
Time: 08:05:51
(UTC+00:00)

SeaSat 1 - Pass Details

Date: 14 July 2020
Orbit: 744 x 748 km, 108.0° (Epoch: 14 August)

Event Time Altitude Azimuth Distance (km) Brightness Sun altitude
Rises 00:36:23 0° 39° (NE) 3,201 6.9 -19.4°
Reaches altitude 10° 00:39:06 10° 54° (NE) 2,272 5.6 -19.3°
Maximum altitude 00:43:01 23° 107° (ESE) 1,547 4.0 -19.1°
Enters shadow 00:45:02 18° 140° (SE) 1,766 4.1 -19.0°
